Location: Unspecified
(54.1780°N, 4.6260°W)
Time: 19:56:03
(UTC+00:00)

Cosmos 2322 Rocket - Visible Passes

Search period start: 10 November 2025 00:00
Search period end: 20 November 2025 00:00
Orbit: 830 x 851 km, 71.0° (Epoch: 08 November)

Date Brightness Start Highest point End Pass type
(mag) Time Alt. Az. Time Alt. Az. Time Alt. Az.
10 Nov 3.6 03:30:09 34° NE 03:30:09 34° NE 03:33:19 10° NE visible
10 Nov 3.1 05:11:57 31° NW 05:12:14 31° NW 05:17:16 10° NNE visible
10 Nov 4.0 06:54:48 10° NW 06:58:10 16° NNW 07:01:33 10° NNE visible
11 Nov 4.0 03:15:23 27° NE 03:15:23 27° NE 03:17:56 10° NE visible
11 Nov 3.1 04:57:11 31° NNW 04:57:11 31° NNW 05:01:53 10° NNE visible
11 Nov 4.0 06:39:18 10° NW 06:42:43 16° NNW 06:46:08 10° NNE visible
12 Nov 4.3 03:00:35 22° NE 03:00:35 22° NE 03:02:32 10° NE visible
12 Nov 3.3 04:42:23 31° NNW 04:42:23 31° NNW 04:46:30 10° NNE visible
12 Nov 4.0 06:24:11 11° NW 06:27:15 16° NNW 06:30:43 10° NNE visible
13 Nov 4.6 02:45:44 18° NE 02:45:44 18° NE 02:47:08 10° NE visible
13 Nov 3.5 04:27:33 29° N 04:27:33 29° N 04:31:08 10° NNE visible
13 Nov 4.0 06:09:20 13° NW 06:11:48 16° NNW 06:15:19 10° NNE visible
14 Nov 4.8 02:30:53 15° NE 02:30:53 15° NE 02:31:44 10° NE visible
14 Nov 3.7 04:12:40 26° N 04:12:40 26° N 04:15:45 10° NNE visible
14 Nov 3.9 05:54:28 14° NW 05:56:20 16° NNW 05:59:54 10° NNE visible
15 Nov 5.0 02:15:59 12° NE 02:15:59 12° NE 02:16:21 10° NE visible
15 Nov 3.9 03:57:46 24° N 03:57:46 24° N 04:00:22 10° NNE visible
15 Nov 3.9 05:39:34 16° NNW 05:40:53 17° NNW 05:44:29 10° NNE visible
16 Nov 4.1 03:42:52 21° NNE 03:42:52 21° NNE 03:44:59 10° NNE visible
16 Nov 3.9 05:24:39 17° NNW 05:25:26 17° NNW 05:29:05 10° NNE visible
16 Nov 4.2 07:08:32 10° NNW 07:11:54 16° N 07:15:14 10° NE visible
17 Nov 4.4 03:27:56 19° NNE 03:27:56 19° NNE 03:29:36 10° NNE visible
17 Nov 4.0 05:09:43 17° NNW 05:09:59 17° NNW 05:13:41 10° NNE visible
17 Nov 4.2 06:53:06 10° NNW 06:56:26 15° N 06:59:45 10° NE visible
18 Nov 4.6 03:12:59 16° NNE 03:12:59 16° NNE 03:14:13 10° NNE visible
18 Nov 4.0 04:54:46 17° NNW 04:54:46 17° NNW 04:58:16 10° NNE visible
18 Nov 4.2 06:37:40 10° NNW 06:40:58 15° N 06:44:16 10° NE visible
19 Nov 4.8 02:58:02 14° NNE 02:58:02 14° NNE 02:58:50 10° NNE visible
19 Nov 4.1 04:39:49 17° N 04:39:49 17° N 04:42:52 10° NNE visible
19 Nov 4.2 06:22:15 10° NNW 06:25:30 15° N 06:28:46 10° NE visible
